Weather History for Aberdeen / Amory, MS

Change the Weather History Date:

Sunday, December 29, 2013

  Actual Average (KCBM) Record (KCBM)
Temperature  
Mean Temperature 51 °F -  
Max Temperature 60 °F 52 °F 73 °F (1996)
Min Temperature 42 °F 34 °F 26 °F (1999)
Degree Days  
Heating Degree Days 14    
Growing Degree Days 1 (Base 50)    
Moisture  
Dew Point 34 °F    
Average Humidity 57    
Maximum Humidity 61    
Minimum Humidity 52    
Precipitation  
Precipitation 0.02 in - - ()
Sea Level Pressure  
Sea Level Pressure 30.04 in    
Wind  
Wind Speed 3 mph (West)    
Max Wind Speed 8 mph    
Max Gust Speed -    
Visibility 6 miles    
Events Rain    
Averages and records for this station are not official NWS values.
T = Trace of Precipitation, MM = Missing Value Source: NWS Daily Summary

Daily Weather History Graph

Daily Weather History Graph

Search for Another Location

Airport:

Trip Planner

Search our weather history database for the weather conditions in past years. The results will help you decide how hot, cold, wet, or windy it might be!

Date:

Astronomy

Dec. 29, 2013 Rise Set
Actual Time 6:58 AM CST 4:54 PM CST
Civil Twilight 6:30 AM CST 5:21 PM CST
Nautical Twilight 5:59 AM CST 5:52 PM CST
Astronomical Twilight 5:29 AM CST 6:23 PM CST
Moon 3:45 AM CST (12/29) 2:28 PM CST (12/29)
Length of Visible Light 10h 50m
Length of Day
9h 55m
Waning Crescent, 11% of the Moon is Illuminated
Dec 29
Waning Crescent
Jan 1
New
Jan 7
First Quarter
Jan 15
Full
Jan 23
Last Quarter

Hourly Weather History & Observations

Time (CST) Temp. Windchill Dew Point Humidity Pressure Visibility Wind Dir Wind Speed Gust Speed Precip Events Conditions
12:15 AM 44.6 °F 43.1 °F 30.2 °F 57% 29.98 in 1.0 mi NNE 3.5 mph - N/A Rain Light Rain
12:35 AM 44.6 °F 42.2 °F 30.2 °F 57% 29.98 in 2.0 mi NNW 4.6 mph - 0.01 in Rain Light Rain
12:55 AM 44.6 °F 42.2 °F 30.2 °F 57% 29.96 in 2.0 mi North 4.6 mph - 0.01 in   Light Drizzle
1:15 AM 44.6 °F 41.4 °F 30.2 °F 57% 29.96 in 3.0 mi NNW 5.8 mph - N/A   Haze
1:35 AM 44.6 °F 42.2 °F 30.2 °F 57% 29.98 in 3.0 mi NW 4.6 mph - N/A Rain Light Rain
1:55 AM 44.6 °F - 30.2 °F 57% 29.98 in 2.5 mi Calm Calm - 0.01 in Rain Light Rain
2:15 AM 42.8 °F - 30.2 °F 61% 29.97 in 2.5 mi Calm Calm - N/A   Haze
2:35 AM 42.8 °F - 30.2 °F 61% 29.97 in 4.0 mi Calm Calm - N/A   Haze
2:55 AM 42.8 °F - 30.2 °F 61% 29.97 in 3.0 mi Calm Calm - N/A   Haze
3:15 AM 42.8 °F - 30.2 °F 61% 29.97 in 4.0 mi Calm Calm - N/A   Haze
3:35 AM 42.8 °F - 30.2 °F 61% 29.98 in 3.0 mi Calm Calm - N/A   Haze
3:55 AM 42.8 °F - 30.2 °F 61% 29.97 in 3.0 mi Calm Calm - N/A   Haze
4:15 AM 42.8 °F - 30.2 °F 61% 29.97 in 3.0 mi Calm Calm - N/A   Haze
4:35 AM 42.8 °F - 30.2 °F 61% 29.98 in 3.0 mi Calm Calm - N/A   Haze
4:55 AM 44.6 °F - 30.2 °F 57% 29.98 in 3.0 mi Calm Calm - N/A   Haze
5:15 AM 44.6 °F 43.1 °F 30.2 °F 57% 29.99 in 3.0 mi West 3.5 mph - N/A   Haze
5:35 AM 44.6 °F 41.4 °F 30.2 °F 57% 30.00 in 1.2 mi West 5.8 mph - N/A   Haze
5:55 AM 44.6 °F 43.1 °F 30.2 °F 57% 30.01 in 1.2 mi West 3.5 mph - N/A   Haze
6:15 AM 44.6 °F 42.2 °F 30.2 °F 57% 30.01 in 1.0 mi WNW 4.6 mph - N/A   Overcast
6:35 AM 44.6 °F 43.1 °F 30.2 °F 57% 30.02 in 1.5 mi West 3.5 mph - N/A   Haze
6:55 AM 44.6 °F 43.1 °F 30.2 °F 57% 30.03 in 2.0 mi NW 3.5 mph - N/A   Haze
7:15 AM 44.6 °F - 30.2 °F 57% 30.03 in 3.0 mi Calm Calm - N/A   Haze
7:35 AM 44.6 °F - 30.2 °F 57% 30.03 in 2.5 mi Calm Calm - N/A   Haze
7:55 AM 44.6 °F - 30.2 °F 57% 30.04 in 3.0 mi Calm Calm - N/A   Haze
8:15 AM 44.6 °F 43.1 °F 32.0 °F 61% 30.05 in 3.0 mi NW 3.5 mph - N/A   Haze
8:35 AM 44.6 °F - 32.0 °F 61% 30.05 in 3.0 mi Calm Calm - N/A   Haze
8:55 AM 44.6 °F 43.1 °F 32.0 °F 61% 30.06 in 5.0 mi West 3.5 mph - N/A   Haze
9:15 AM 46.4 °F 43.5 °F 32.0 °F 57% 30.08 in 2.5 mi WNW 5.8 mph - N/A   Haze
9:35 AM 46.4 °F - 32.0 °F 57% 30.08 in 5.0 mi Calm Calm - N/A   Haze
9:55 AM 48.2 °F - 32.0 °F 54% 30.09 in 7.0 mi NW 3.5 mph - N/A   Mostly Cloudy
10:15 AM 50.0 °F - 33.8 °F 54% 30.08 in 8.0 mi Calm Calm - N/A   Mostly Cloudy
10:35 AM 51.8 °F - 35.6 °F 54% 30.08 in 7.0 mi SW 4.6 mph - N/A   Mostly Cloudy
10:55 AM 53.6 °F - 37.4 °F 54% 30.08 in 7.0 mi SW 6.9 mph - N/A   Mostly Cloudy
11:15 AM 53.6 °F - 37.4 °F 54% 30.07 in 4.0 mi West 6.9 mph - N/A   Haze
11:35 AM 55.4 °F - 39.2 °F 54% 30.06 in 3.0 mi WSW 6.9 mph - N/A   Haze
11:55 AM 55.4 °F - 39.2 °F 54% 30.05 in 5.0 mi WSW 5.8 mph - N/A   Haze
12:15 PM 57.2 °F - 41.0 °F 55% 30.04 in 9.0 mi WSW 4.6 mph - N/A   Clear
12:35 PM 57.2 °F - 41.0 °F 55% 30.03 in 9.0 mi West 4.6 mph - N/A   Clear
12:55 PM 57.2 °F - 42.8 °F 59% 30.04 in 9.0 mi SW 5.8 mph - N/A   Clear
1:15 PM 59.0 °F - 42.8 °F 55% 30.03 in 9.0 mi West 8.1 mph - N/A   Clear
1:35 PM 59.0 °F - 42.8 °F 55% 30.03 in 9.0 mi SSW 6.9 mph - N/A   Clear
1:55 PM 60.8 °F - 42.8 °F 52% 30.02 in 9.0 mi West 3.5 mph - N/A   Clear
2:15 PM 60.8 °F - 44.6 °F 55% 30.02 in 9.0 mi West 3.5 mph - N/A   Clear
2:35 PM 60.8 °F - 44.6 °F 55% 30.02 in 8.0 mi West 4.6 mph - N/A   Clear
2:55 PM 60.8 °F - 44.6 °F 55% 30.02 in 9.0 mi WSW 4.6 mph - N/A   Clear
3:15 PM 60.8 °F - 44.6 °F 55% 30.03 in 9.0 mi West 4.6 mph - N/A   Clear
3:35 PM 60.8 °F - 44.6 °F 55% 30.03 in 9.0 mi West 3.5 mph - N/A   Clear
3:55 PM 60.8 °F - 44.6 °F 55% 30.03 in 9.0 mi West 4.6 mph - N/A   Clear
4:15 PM 59.0 °F - 42.8 °F 55% 30.04 in 9.0 mi West 4.6 mph - N/A   Clear
4:35 PM 55.4 °F - 39.2 °F 54% 30.05 in 9.0 mi West 3.5 mph - N/A   Clear
4:55 PM 53.6 °F - 37.4 °F 54% 30.05 in 9.0 mi Calm Calm - N/A   Clear
5:15 PM 51.8 °F - 35.6 °F 54% 30.05 in 9.0 mi Calm Calm - N/A   Partly Cloudy
5:35 PM 48.2 °F - 33.8 °F 58% 30.05 in 10.0 mi Calm Calm - N/A   Mostly Cloudy
5:55 PM 48.2 °F - 32.0 °F 54% 30.06 in 9.0 mi Calm Calm - N/A   Scattered Clouds
6:15 PM 46.4 °F - 32.0 °F 57% 30.06 in 10.0 mi Calm Calm - N/A   Mostly Cloudy
6:35 PM 48.2 °F - 33.8 °F 58% 30.06 in 10.0 mi Calm Calm - N/A   Mostly Cloudy
6:55 PM 46.4 °F - 32.0 °F 57% 30.07 in 9.0 mi Calm Calm - N/A   Partly Cloudy
7:15 PM 44.6 °F - 30.2 °F 57% 30.08 in 8.0 mi Calm Calm - N/A   Clear
7:35 PM 44.6 °F - 30.2 °F 57% 30.09 in 7.0 mi Calm Calm - N/A   Partly Cloudy
7:55 PM 44.6 °F - 30.2 °F 57% 30.09 in 8.0 mi Calm Calm - N/A   Scattered Clouds
8:15 PM 44.6 °F - 32.0 °F 61% 30.10 in 8.0 mi Calm Calm - N/A   Scattered Clouds
8:35 PM 44.6 °F - 32.0 °F 61% 30.10 in 9.0 mi Calm Calm - N/A   Mostly Cloudy
8:55 PM 46.4 °F - 32.0 °F 57% 30.10 in 9.0 mi Calm Calm - N/A   Overcast
9:15 PM 46.4 °F - 32.0 °F 57% 30.11 in 9.0 mi Calm Calm - N/A   Overcast
9:35 PM 48.2 °F - 33.8 °F 58% 30.11 in 10.0 mi West 3.5 mph - N/A   Mostly Cloudy
9:55 PM 48.2 °F - 33.8 °F 58% 30.11 in 10.0 mi Calm Calm - N/A   Partly Cloudy
10:15 PM 46.4 °F - 32.0 °F 57% 30.12 in 4.0 mi Calm Calm - N/A   Haze
10:35 PM 48.2 °F - 32.0 °F 54% 30.13 in 9.0 mi Calm Calm - N/A   Scattered Clouds
10:55 PM 46.4 °F - 32.0 °F 57% 30.14 in 8.0 mi Calm Calm - N/A   Scattered Clouds
11:15 PM 46.4 °F - 32.0 °F 57% 30.13 in 9.0 mi Calm Calm - N/A   Scattered Clouds
11:35 PM 46.4 °F - 32.0 °F 57% 30.13 in 9.0 mi Calm Calm - N/A   Scattered Clouds
11:55 PM 46.4 °F 45.2 °F 32.0 °F 57% 30.13 in 9.0 mi NW 3.5 mph - N/A   Mostly Cloudy